Change the Weather History Date:

Sunday, March 10, 2013

  Actual Average (KPOU) Record (KPOU)
Temperature  
Mean Temperature 34 °F 34 °F  
Max Temperature 48 °F 46 °F 72 °F (2006)
Min Temperature 19 °F 23 °F -3 °F (1984)
Degree Days  
Heating Degree Days 32 30  
Month to date heating degree days 318  
Since 1 July heating degree days 4889  
Cooling Degree Days 0 0  
Month to date cooling degree days 0  
Year to date cooling degree days 0  
Moisture  
Dew Point 23 °F    
Average Humidity 73    
Maximum Humidity 96    
Minimum Humidity 42    
Precipitation  
Precipitation 0.00 in 0.11 in 0.97 in (1964)
Month to date precipitation 1.10  
Year to date precipitation 6.84  
Sea Level Pressure  
Sea Level Pressure 30.32 in    
Wind  
Wind Speed 1 mph (South)    
Max Wind Speed 9 mph    
Max Gust Speed -    
Visibility 7 miles    
Events Fog    
T = Trace of Precipitation, MM = Missing Value Source: NWS Daily Summary

Daily Weather History Graph

Daily Weather History Graph

Search for Another Location

Airport or City:

Trip Planner

Search our weather history database for the weather conditions in past years. The results will help you decide how hot, cold, wet, or windy it might be!

Date:

Astronomy

Mar. 10, 2013 Rise Set
Actual Time 7:16 AM EDT 6:58 PM EDT
Civil Twilight 6:49 AM EDT 7:25 PM EDT
Nautical Twilight 6:17 AM EDT 7:58 PM EDT
Astronomical Twilight 5:44 AM EDT 8:30 PM EDT
Moon 6:15 AM EDT (3/10) 6:03 PM EDT (3/10)
Length of Visible Light 12h 36m
Length of Day
11h 41m
Waning Crescent, 2% of the Moon is Illuminated
Mar 10
Waning Crescent
Mar 11
New
Mar 19
First Quarter
Mar 27
Full
Apr 3
Last Quarter

Hourly Weather History & Observations

Time (EDT) Temp. Windchill Dew Point Humidity Pressure Visibility Wind Dir Wind Speed Gust Speed Precip Events Conditions
12:54 AM 25.0 °F - 21.9 °F 88% 30.33 in 10.0 mi Calm Calm - N/A   Clear
1:54 AM 21.9 °F - 19.0 °F 89% 30.32 in 10.0 mi Calm Calm - N/A   Clear
3:54 AM 23.0 °F - 19.9 °F 88% 30.32 in 5.0 mi Calm Calm - N/A   Clear
4:40 AM 21.2 °F - 19.4 °F 93% 30.32 in 0.8 mi Calm Calm - 0.00 in   Mist
4:46 AM 21.2 °F - 19.4 °F 93% 30.33 in 1.2 mi Calm Calm - 0.00 in   Partly Cloudy
4:54 AM 19.9 °F - 17.1 °F 89% 30.34 in 2.5 mi Calm Calm - 0.00 in   Partly Cloudy
5:40 AM 21.2 °F - 17.6 °F 86% 30.33 in 1.5 mi Calm Calm - N/A   Clear
5:54 AM 21.0 °F - 18.0 °F 88% 30.34 in 1.5 mi Calm Calm - N/A   Clear
5:58 AM 21.2 °F - 17.6 °F 86% 30.33 in 0.8 mi Calm Calm - N/A   Mist
6:07 AM 19.4 °F - 15.8 °F 86% 30.33 in 0.2 mi Calm Calm - N/A Fog Light Freezing Fog
6:29 AM 21.2 °F - 17.6 °F 86% 30.33 in 1.5 mi Calm Calm - N/A   Partly Cloudy
6:31 AM 21.2 °F - 17.6 °F 86% 30.33 in 3.0 mi Calm Calm - N/A   Partly Cloudy
6:54 AM 21.0 °F - 17.1 °F 85% 30.35 in 10.0 mi Calm Calm - N/A   Clear
8:54 AM 25.0 °F - 24.1 °F 96% 30.37 in 10.0 mi Calm Calm - N/A   Clear
9:54 AM 30.0 °F 26.5 °F 24.1 °F 79% 30.38 in 10.0 mi ESE 3.5 mph - N/A   Clear
10:54 AM 39.0 °F - 27.0 °F 62% 30.37 in 10.0 mi Calm Calm - N/A   Clear
11:54 AM 43.0 °F - 26.1 °F 51% 30.35 in 10.0 mi Calm Calm - N/A   Clear
12:54 PM 45.0 °F - 26.1 °F 48% 30.34 in 10.0 mi Calm Calm - N/A   Clear
1:54 PM 46.0 °F 43.1 °F 26.1 °F 46% 30.32 in 10.0 mi SSW 5.8 mph - N/A   Clear
2:54 PM 48.0 °F - 26.1 °F 42% 30.29 in 10.0 mi South 5.8 mph - N/A   Mostly Cloudy
3:54 PM 48.9 °F - 27.0 °F 43% 30.27 in 10.0 mi South 8.1 mph - N/A   Clear
4:54 PM 48.9 °F - 28.9 °F 46% 30.26 in 10.0 mi SSE 9.2 mph - N/A   Clear
5:54 PM 48.0 °F - 28.9 °F 48% 30.25 in 10.0 mi SSE 6.9 mph - N/A   Clear
6:54 PM 46.0 °F 41.9 °F 30.0 °F 54% 30.27 in 10.0 mi South 8.1 mph - N/A   Clear
7:54 PM 44.1 °F 40.8 °F 30.0 °F 58% 30.27 in 10.0 mi South 5.8 mph - N/A   Clear
8:54 PM 41.0 °F 36.4 °F 32.0 °F 70% 30.27 in 10.0 mi SSW 6.9 mph - N/A   Clear
10:54 PM 37.9 °F 32.1 °F 30.9 °F 76% 30.28 in 10.0 mi South 8.1 mph - N/A   Clear
11:54 PM 37.0 °F 32.4 °F 30.9 °F 79% 30.28 in 10.0 mi SSW 5.8 mph - N/A   Clear